sat.trackr.live / text

‹ back to catalog

STARLINK-3721

NORAD 52134 · 2022-029AY

PAYLOAD ACTIVE UNKNOWN

§ Identity

Operator
Country
US
Launch date
2022-03-19
Launch site
AFETR
Launch vehicle
Mass (kg)
RCS (m²)

Purposes: comms

External: N2YO · Heavens-Above · Gunter

§ Orbital elements

Epoch: 2026-05-25T02:41:58.813728Z

Period
95.44 min
Inclination
53.2136°
Eccentricity
0.0001439
Mean motion
15.08839790 rev/d
Perigee alt
538.7 km
Apogee alt
540.7 km
Semi-major
6,917.9 km
B*
-1.3047e-5
RAAN
86.0460°
Arg perigee
63.7100°
Mean anomaly
296.4040°
Rev number
23,247

§ Raw data

STARLINK-37211 52134U 22029AY  26145.11248627 -.00000496  00000+0 -13047-4 0  99982 52134  53.2136  86.0460 0001439  63.7100 296.4040 15.08839790232478

JSON: /api/v1/satellites/52134 · /tle

For live sub-satellite position, see the globe view (requires WebGL).

§ Visibility from observer

Set your observer location to see the next 7 days of passes ≥ 10°. The values pass through the URL so the page stays shareable.

No JS? Fill the form by hand. The geolocation button needs JavaScript.